Location: Burleson Alternative School
(32.5290°N, 97.3406°W)
Time: 09:44:07
(UTC+00:00)

Vanguard 2 Rocket - Pass Details

Date: 12 November 2025
Orbit: 553 x 3287 km, 32.9° (Epoch: 07 December)

Event Time Altitude Azimuth Distance (km) Brightness Sun altitude
Exits shadow 07:50:54 13° 151° (SSE) 5,482 10.8 -63.6°
Drops below altitude 10° 07:52:12 10° 149° (SSE) 5,780 10.9 -63.4°
Sets 07:57:54 0° 142° (SE) 7,060 11.5 -62.3°
